{"data":{"norad_id":52600,"epoch":"2026-09-20T02:59:51.647712Z","epoch_age_seconds":95630,"freshness":"FRESH","line1":"1 52600U 22052C   26263.12490333  .00000370  00000+0  23691-4 0  9992","line2":"2 52600  53.1593 113.5329 0001328  87.7328 272.3826 15.31701701241186","mean_motion":15.31701701,"eccentricity":0.0001328,"inclination_deg":53.1593,"raan_deg":113.5329,"arg_perigee_deg":87.7328,"mean_anomaly_deg":272.3826,"bstar":2.3691e-5,"rev_number":24118,"period_min":94.013083556666,"perigee_km":469.82539444626,"apogee_km":471.64445482944,"semimajor_km":6848.8719246379,"source":"CELESTRAK","updated_at":"2026-09-20T09:00:40.067771Z"}}